Simultaneous Nadir Overpasses (SNOs) Predictions

Prediction of SNOs between LANDSAT-8 and METOP-B Satellite Orbit:

Table of predicted SNOs for the next 14.0 days since TLE Epoch: 5/27/2023
Index Date (LANDSAT-8) Time (LANDSAT-8) Lat,Lon (LANDSAT-8) SZA (LANDSAT-8 ) Date (METOP-B) Time (METOP-B) Lat,Lon (METOP-B) SZA (METOP-B ) Distance(km) Time Diff (sec)
1 05/27/2023 08:07:44 81.20, 99.21 62.27 05/27/2023 08:07:30 81.19, 99.14 62.25 1.34 14
2 05/27/2023 08:57:10 -81.22, -92.86 117.70 05/27/2023 08:58:09 -81.22, -92.81 117.66 0.77 59
3 05/30/2023 03:41:59 81.21, 165.77 61.83 05/30/2023 03:41:52 81.20, 165.79 61.83 0.55 7
4 05/30/2023 04:31:25 -81.22, -26.28 118.13 05/30/2023 04:32:31 -81.22, -26.13 118.08 2.50 66
5 06/01/2023 22:26:49 -81.18, 64.11 118.64 06/01/2023 22:25:36 -81.18, 64.08 118.68 0.57 73
6 06/01/2023 23:16:14 81.20,-127.82 61.42 06/01/2023 23:16:15 81.20,-128.01 61.40 3.32 1
7 06/02/2023 00:05:40 -81.22, 40.16 118.54 06/02/2023 00:06:54 -81.22, 40.10 118.51 1.06 74
8 06/04/2023 18:01:02 -81.19, 130.78 118.97 06/04/2023 17:59:57 -81.18, 130.64 119.02 2.64 65
9 06/04/2023 18:50:28 81.19, -61.54 61.04 06/04/2023 18:50:36 81.20, -61.48 61.06 1.31 8
10 06/07/2023 13:35:17 -81.17,-163.06 119.32 06/07/2023 13:34:20 -81.17,-163.24 119.36 3.15 57



Historial Predications of SNOs between LANDSAT-8 and METOP-B
